Location: La Comballaz
(46.3780°N, 7.0817°E)
Time: 09:43:01
(UTC+00:00)

ITUPSAT 1 - Visible Passes

Search period start: 30 November 2022 00:00
Search period end: 10 December 2022 00:00
Orbit: 700 x 710 km, 98.5° (Epoch: 29 November)

Date Brightness Start Highest point End Pass type
(mag) Time Alt. Az. Time Alt. Az. Time Alt. Az.
30 Nov ? 05:49:27 10° E 05:52:07 15° ENE 05:54:47 10° NNE visible
02 Dec ? 05:39:58 10° ENE 05:41:51 12° NE 05:43:45 10° NNE visible
03 Dec ? 06:21:01 10° ESE 06:25:01 27° ENE 06:29:02 10° N visible
05 Dec ? 06:11:02 10° ESE 06:14:42 22° ENE 06:18:23 10° NNE visible
07 Dec ? 06:01:08 10° ESE 06:04:23 18° ENE 06:07:39 10° NNE visible
09 Dec ? 05:51:23 10° E 05:54:05 15° ENE 05:56:49 10° NNE visible
